Weather in Platanias

Greece     35°31′01″N   23°54′24″E
temp.,
°C
wind,
m/s
gust,
m/s
humid.,
%
clouds,
%
prec.,
mm/h
press.,
hPa
HPBL,
m
6 march, sat
sat623:00+11sw115857 0.0 102271
02:00+11ssw224374 0.0 102254
05:00+12sse125283 0.0 102185
08:00+13s225285 0.0 102166
11:00+17n23450 0.0 1022834
14:00+17n33463 0.0 1021732
17:00+16n125682 0.0 1020230
20:00+13se126643 0.0 102137
7 march, sun
sun723:00+12se12620 0.0 102276
02:00+12sse11580 0.0 102153
05:00+11se11620 0.0 102179
08:00+12ese35810 0.0 1022410
11:00+14ene557940 0.1 1022709
14:00+13ne668356 0.3 1021634
17:00+12ne678799 0.1 1020524
20:00+11ene568699 0.2 1021536
8 march, mon
mon823:00+11e458465 0.0 1021516
02:00+10e468364 0.0 1020437
05:00+10e458128 0.0 1019449
08:00+11ese457623 0.0 1019491
11:00+14ene44660 0.0 1019620
14:00+14ene446927 0.0 1018579
17:00+13e5576100 0.0 1016473
20:00+11ese4584100 0.0 1016316
9 march, tue
tue923:00+11ese4582100 0.0 1016293
02:00+11e3482100 0.0 1015202
05:00+10e4585100 0.0 1014247
08:00+12e788196 0.0 1014496
11:00+14e8973100 0.0 1013675
14:00+14ene887285 0.0 1011719
17:00+12ene577853 0.0 1010789
20:00+12ene577971 0.0 1012712
10 march, wed
wed1023:00+12ene478387 0.0 1013625
02:00+12ene468382 0.0 1012564
05:00+12ene5782100 0.1 1012625
08:00+12e358398 0.1 1013536
11:00+14ene457472 0.0 1015718
14:00+15ne447065 0.1 1014718
17:00+13ne337548 0.0 1014576
20:00+11e118336 0.0 1016278